Time,TemperatureF,DewpointF,PressureIn,WindDirection,WindDirectionDegrees,WindSpeedMPH,WindSpeedGustMPH,Humidity,HourlyPrecipIn,Conditions,Clouds,dailyrainin,SoftwareType,DateUTC
2014-12-18 00:00:00,29.4,25.7,30.18,WNW,287,5.0,5.0,86,0.00,,,0.00,Wunderground v.1.15,2014-12-18 05:00:00,
2014-12-18 00:05:00,29.4,25.4,30.17,WNW,299,6.0,6.0,85,0.00,,,0.00,Wunderground v.1.15,2014-12-18 05:05:00,
2014-12-18 00:15:00,29.5,25.5,30.17,West,279,4.0,14.0,85,0.00,,,0.00,Wunderground v.1.15,2014-12-18 05:15:00,
2014-12-18 00:25:00,29.5,25.0,30.18,West,275,5.0,14.0,83,0.00,,,0.00,Wunderground v.1.15,2014-12-18 05:25:00,
2014-12-18 00:30:00,29.6,24.5,30.18,NW,304,7.0,7.0,81,0.00,,,0.00,Wunderground v.1.15,2014-12-18 05:30:00,
2014-12-18 00:35:00,29.6,24.5,30.17,WNW,299,5.0,14.0,81,0.00,,,0.00,Wunderground v.1.15,2014-12-18 05:35:00,
2014-12-18 00:40:00,29.6,24.8,30.18,West,278,3.0,14.0,82,0.00,,,0.00,Wunderground v.1.15,2014-12-18 05:40:00,
2014-12-18 00:45:00,29.6,24.8,30.18,WNW,297,4.0,14.0,82,0.00,,,0.00,Wunderground v.1.15,2014-12-18 05:45:00,
2014-12-18 00:50:00,29.5,24.7,30.18,WNW,294,3.0,14.0,82,0.00,,,0.00,Wunderground v.1.15,2014-12-18 05:50:00,
2014-12-18 00:55:00,29.6,24.8,30.18,WNW,301,3.0,14.0,82,0.00,,,0.00,Wunderground v.1.15,2014-12-18 05:55:00,
2014-12-18 01:00:00,29.5,25.0,30.18,WNW,301,2.0,14.0,83,0.00,,,0.00,Wunderground v.1.15,2014-12-18 06:00:00,
2014-12-18 01:05:00,29.5,24.7,30.18,WNW,294,2.0,14.0,82,0.00,,,0.00,Wunderground v.1.15,2014-12-18 06:05:00,
2014-12-18 01:10:00,29.5,25.0,30.18,WNW,294,3.0,14.0,83,0.00,,,0.00,Wunderground v.1.15,2014-12-18 06:10:00,
2014-12-18 01:15:00,29.5,24.7,30.17,WNW,295,4.0,14.0,82,0.00,,,0.00,Wunderground v.1.15,2014-12-18 06:15:00,
2014-12-18 01:25:00,29.5,25.0,30.18,WNW,289,3.0,14.0,83,0.00,,,0.00,Wunderground v.1.15,2014-12-18 06:25:00,
2014-12-18 01:35:00,29.4,24.6,30.18,WNW,291,3.0,14.0,82,0.00,,,0.00,Wunderground v.1.15,2014-12-18 06:35:00,
2014-12-18 01:40:00,29.4,24.6,30.18,WNW,291,2.0,14.0,82,0.00,,,0.00,Wunderground v.1.15,2014-12-18 06:40:00,
2014-12-18 01:45:00,29.4,24.6,30.19,WNW,291,1.0,14.0,82,0.00,,,0.00,Wunderground v.1.15,2014-12-18 06:45:00,
2014-12-18 01:50:00,29.4,24.6,30.18,WNW,291,1.0,14.0,82,0.00,,,0.00,Wunderground v.1.15,2014-12-18 06:50:00,
2014-12-18 02:00:00,29.4,24.9,30.19,WNW,292,1.0,14.0,83,0.00,,,0.00,Wunderground v.1.15,2014-12-18 07:00:00,
2014-12-18 02:05:00,29.4,24.6,30.19,NW,312,2.0,14.0,82,0.00,,,0.00,Wunderground v.1.15,2014-12-18 07:05:00,
2014-12-18 02:10:00,29.3,24.2,30.19,WNW,298,3.0,3.0,81,0.00,,,0.00,Wunderground v.1.15,2014-12-18 07:10:00,
2014-12-18 02:15:00,29.4,24.9,30.19,WNW,292,3.0,14.0,83,0.00,,,0.00,Wunderground v.1.15,2014-12-18 07:15:00,
2014-12-18 02:20:00,29.4,24.9,30.19,WNW,289,3.0,3.0,83,0.00,,,0.00,Wunderground v.1.15,2014-12-18 07:20:00,
2014-12-18 02:25:00,29.4,25.2,30.19,WNW,289,3.0,14.0,84,0.00,,,0.00,Wunderground v.1.15,2014-12-18 07:25:00,
2014-12-18 02:35:00,29.4,25.2,30.20,West,277,5.0,14.0,84,0.00,,,0.00,Wunderground v.1.15,2014-12-18 07:35:00,
2014-12-18 02:45:00,29.3,24.8,30.20,WNW,296,5.0,14.0,83,0.00,,,0.00,Wunderground v.1.15,2014-12-18 07:45:00,
2014-12-18 02:50:00,29.3,24.8,30.20,WNW,296,4.0,4.0,83,0.00,,,0.00,Wunderground v.1.15,2014-12-18 07:50:00,
2014-12-18 02:55:00,29.3,24.8,30.20,WNW,296,2.0,14.0,83,0.00,,,0.00,Wunderground v.1.15,2014-12-18 07:55:00,
2014-12-18 03:00:00,29.2,24.4,30.20,WNW,293,3.0,14.0,82,0.00,,,0.00,Wunderground v.1.15,2014-12-18 08:00:00,
2014-12-18 03:10:00,29.2,24.4,30.20,WNW,299,2.0,2.0,82,0.00,,,0.00,Wunderground v.1.15,2014-12-18 08:10:00,
2014-12-18 03:15:00,29.2,24.4,30.20,WNW,299,2.0,14.0,82,0.00,,,0.00,Wunderground v.1.15,2014-12-18 08:15:00,
2014-12-18 03:20:00,29.3,24.8,30.20,WNW,299,2.0,2.0,83,0.00,,,0.00,Wunderground v.1.15,2014-12-18 08:20:00,
2014-12-18 03:25:00,29.3,24.8,30.20,WNW,299,1.0,14.0,83,0.00,,,0.00,Wunderground v.1.15,2014-12-18 08:25:00,
2014-12-18 03:30:00,29.3,24.5,30.20,NW,325,1.0,1.0,82,0.00,,,0.00,Wunderground v.1.15,2014-12-18 08:30:00,
2014-12-18 03:40:00,29.2,24.4,30.20,NW,305,2.0,2.0,82,0.00,,,0.00,Wunderground v.1.15,2014-12-18 08:40:00,
2014-12-18 03:45:00,29.2,24.7,30.20,NW,305,2.0,4.0,83,0.00,,,0.00,Wunderground v.1.15,2014-12-18 08:45:00,
2014-12-18 03:50:00,29.2,24.7,30.20,NW,305,2.0,2.0,83,0.00,,,0.00,Wunderground v.1.15,2014-12-18 08:50:00,
2014-12-18 03:55:00,29.3,25.1,30.20,NW,305,1.0,3.0,84,0.00,,,0.00,Wunderground v.1.15,2014-12-18 08:55:00,
2014-12-18 04:05:00,29.3,25.1,30.20,WNW,296,4.0,14.0,84,0.00,,,0.00,Wunderground v.1.15,2014-12-18 09:05:00,
2014-12-18 04:15:00,29.2,25.0,30.20,NNW,342,3.0,14.0,84,0.00,,,0.00,Wunderground v.1.15,2014-12-18 09:15:00,
2014-12-18 04:20:00,29.1,24.6,30.20,North,350,3.0,3.0,83,0.00,,,0.00,Wunderground v.1.15,2014-12-18 09:20:00,
2014-12-18 04:25:00,29.1,24.6,30.20,NNW,347,2.0,14.0,83,0.00,,,0.00,Wunderground v.1.15,2014-12-18 09:25:00,
2014-12-18 04:30:00,29.1,24.9,30.20,NNW,347,2.0,2.0,84,0.00,,,0.00,Wunderground v.1.15,2014-12-18 09:30:00,
2014-12-18 04:35:00,29.1,25.2,30.20,NNW,347,1.0,14.0,85,0.00,,,0.00,Wunderground v.1.15,2014-12-18 09:35:00,
2014-12-18 04:40:00,29.2,25.3,30.19,West,274,1.0,1.0,85,0.00,,,0.00,Wunderground v.1.15,2014-12-18 09:40:00,
2014-12-18 04:50:00,29.1,25.2,30.20,WNW,302,2.0,2.0,85,0.00,,,0.00,Wunderground v.1.15,2014-12-18 09:50:00,
2014-12-18 04:55:00,29.1,25.2,30.20,WNW,302,2.0,14.0,85,0.00,,,0.00,Wunderground v.1.15,2014-12-18 09:55:00,
2014-12-18 05:00:00,29.0,25.1,30.20,WNW,303,3.0,3.0,85,0.00,,,0.00,Wunderground v.1.15,2014-12-18 10:00:00,
2014-12-18 05:10:00,29.1,25.2,30.20,West,280,3.0,14.0,85,0.00,,,0.00,Wunderground v.1.15,2014-12-18 10:10:00,
2014-12-18 05:15:00,29.1,25.2,30.20,NNW,327,3.0,14.0,85,0.00,,,0.00,Wunderground v.1.15,2014-12-18 10:15:00,
2014-12-18 05:25:00,29.1,25.2,30.21,NW,315,1.0,4.0,85,0.00,,,0.00,Wunderground v.1.15,2014-12-18 10:25:00,
2014-12-18 05:30:00,29.1,25.2,30.21,NW,315,1.0,14.0,85,0.00,,,0.00,Wunderground v.1.15,2014-12-18 10:30:00,
2014-12-18 05:35:00,29.1,25.2,30.21,NW,315,2.0,14.0,85,0.00,,,0.00,Wunderground v.1.15,2014-12-18 10:35:00,
2014-12-18 05:40:00,29.2,25.3,30.21,West,281,2.0,14.0,85,0.00,,,0.00,Wunderground v.1.15,2014-12-18 10:40:00,
2014-12-18 05:45:00,29.2,25.3,30.21,WNW,296,3.0,14.0,85,0.00,,,0.00,Wunderground v.1.15,2014-12-18 10:45:00,
2014-12-18 05:55:00,29.2,25.3,30.21,WNW,290,3.0,14.0,85,0.00,,,0.00,Wunderground v.1.15,2014-12-18 10:55:00,
2014-12-18 06:00:00,29.2,25.3,30.21,WNW,290,1.0,14.0,85,0.00,,,0.00,Wunderground v.1.15,2014-12-18 11:00:00,
2014-12-18 06:05:00,29.2,25.3,30.21,WNW,290,2.0,14.0,85,0.00,,,0.00,Wunderground v.1.15,2014-12-18 11:05:00,
2014-12-18 06:10:00,29.2,25.3,30.21,WNW,290,2.0,2.0,85,0.00,,,0.00,Wunderground v.1.15,2014-12-18 11:10:00,
2014-12-18 06:20:00,29.2,25.3,30.21,WNW,290,1.0,14.0,85,0.00,,,0.00,Wunderground v.1.15,2014-12-18 11:20:00,
2014-12-18 06:30:00,29.1,25.2,30.21,WNW,290,3.0,14.0,85,0.00,,,0.00,Wunderground v.1.15,2014-12-18 11:30:00,
2014-12-18 06:35:00,29.1,25.2,30.21,WNW,289,3.0,14.0,85,0.00,,,0.00,Wunderground v.1.15,2014-12-18 11:35:00,
2014-12-18 06:40:00,29.1,25.2,30.20,WNW,289,3.0,14.0,85,0.00,,,0.00,Wunderground v.1.15,2014-12-18 11:40:00,
2014-12-18 06:45:00,29.2,25.0,30.20,WNW,289,3.0,14.0,84,0.00,,,0.00,Wunderground v.1.15,2014-12-18 11:45:00,
2014-12-18 06:50:00,29.2,25.3,30.20,WNW,289,3.0,14.0,85,0.00,,,0.00,Wunderground v.1.15,2014-12-18 11:50:00,
2014-12-18 06:55:00,29.2,25.0,30.20,WNW,289,3.0,14.0,84,0.00,,,0.00,Wunderground v.1.15,2014-12-18 11:55:00,
2014-12-18 07:05:00,29.1,24.9,30.20,WNW,289,3.0,14.0,84,0.00,,,0.00,Wunderground v.1.15,2014-12-18 12:05:00,
2014-12-18 07:10:00,29.1,24.9,30.20,WNW,289,3.0,14.0,84,0.00,,,0.00,Wunderground v.1.15,2014-12-18 12:10:00,
2014-12-18 07:15:00,29.2,25.0,30.20,WNW,289,3.0,14.0,84,0.00,,,0.00,Wunderground v.1.15,2014-12-18 12:15:00,
2014-12-18 07:25:00,29.2,25.0,30.20,WNW,289,3.0,14.0,84,0.00,,,0.00,Wunderground v.1.15,2014-12-18 12:25:00,
2014-12-18 07:30:00,29.3,25.1,30.20,WNW,289,3.0,3.0,84,0.00,,,0.00,Wunderground v.1.15,2014-12-18 12:30:00,
2014-12-18 07:40:00,29.3,25.1,30.21,WNW,289,3.0,14.0,84,0.00,,,0.00,Wunderground v.1.15,2014-12-18 12:40:00,
2014-12-18 07:45:00,29.3,25.1,30.21,WNW,289,3.0,14.0,84,0.00,,,0.00,Wunderground v.1.15,2014-12-18 12:45:00,
2014-12-18 07:50:00,29.3,25.1,30.21,WNW,288,4.0,14.0,84,0.00,,,0.00,Wunderground v.1.15,2014-12-18 12:50:00,
2014-12-18 07:55:00,29.4,25.2,30.21,WNW,284,4.0,14.0,84,0.00,,,0.00,Wunderground v.1.15,2014-12-18 12:55:00,
2014-12-18 08:00:00,29.3,24.8,30.21,West,277,5.0,5.0,83,0.00,,,0.00,Wunderground v.1.15,2014-12-18 13:00:00,
2014-12-18 08:10:00,29.3,24.5,30.21,West,274,4.0,14.0,82,0.00,,,0.00,Wunderground v.1.15,2014-12-18 13:10:00,
2014-12-18 08:15:00,29.3,24.8,30.21,West,274,3.0,14.0,83,0.00,,,0.00,Wunderground v.1.15,2014-12-18 13:15:00,
2014-12-18 08:20:00,29.3,24.8,30.21,West,271,3.0,14.0,83,0.00,,,0.00,Wunderground v.1.15,2014-12-18 13:20:00,
2014-12-18 08:25:00,29.3,24.8,30.21,West,259,3.0,14.0,83,0.00,,,0.00,Wunderground v.1.15,2014-12-18 13:25:00,
2014-12-18 08:30:00,29.3,24.8,30.21,WSW,251,3.0,14.0,83,0.00,,,0.00,Wunderground v.1.15,2014-12-18 13:30:00,
2014-12-18 08:35:00,29.4,24.9,30.21,West,265,3.0,14.0,83,0.00,,,0.00,Wunderground v.1.15,2014-12-18 13:35:00,
2014-12-18 08:45:00,29.4,24.6,30.21,WSW,248,4.0,14.0,82,0.00,,,0.00,Wunderground v.1.15,2014-12-18 13:45:00,
2014-12-18 08:50:00,29.5,24.7,30.21,WSW,246,4.0,14.0,82,0.00,,,0.00,Wunderground v.1.15,2014-12-18 13:50:00,
2014-12-18 09:00:00,29.6,24.8,30.21,WSW,246,4.0,14.0,82,0.00,,,0.00,Wunderground v.1.15,2014-12-18 14:00:00,
2014-12-18 09:05:00,29.6,25.1,30.21,WSW,246,3.0,14.0,83,0.00,,,0.00,Wunderground v.1.15,2014-12-18 14:05:00,
2014-12-18 09:10:00,29.7,25.2,30.21,WSW,246,3.0,3.0,83,0.00,,,0.00,Wunderground v.1.15,2014-12-18 14:10:00,
2014-12-18 09:15:00,29.7,24.9,30.21,WSW,246,3.0,4.0,82,0.00,,,0.00,Wunderground v.1.15,2014-12-18 14:15:00,
2014-12-18 09:20:00,29.8,25.0,30.21,WSW,246,3.0,14.0,82,0.00,,,0.00,Wunderground v.1.15,2014-12-18 14:20:00,
2014-12-18 09:25:00,29.8,25.3,30.21,WSW,246,3.0,14.0,83,0.00,,,0.00,Wunderground v.1.15,2014-12-18 14:25:00,
2014-12-18 09:30:00,29.9,25.4,30.21,WSW,247,3.0,14.0,83,0.00,,,0.00,Wunderground v.1.15,2014-12-18 14:30:00,
2014-12-18 09:35:00,30.0,25.5,30.21,West,281,4.0,14.0,83,0.00,,,0.00,Wunderground v.1.15,2014-12-18 14:35:00,
2014-12-18 09:40:00,30.0,25.2,30.21,WNW,290,4.0,14.0,82,0.00,,,0.00,Wunderground v.1.15,2014-12-18 14:40:00,
2014-12-18 09:50:00,29.9,25.1,30.22,West,274,5.0,14.0,82,0.00,,,0.00,Wunderground v.1.15,2014-12-18 14:50:00,
2014-12-18 09:55:00,30.0,25.5,30.22,West,269,5.0,14.0,83,0.00,,,0.00,Wunderground v.1.15,2014-12-18 14:55:00,
2014-12-18 10:00:00,30.1,25.6,30.23,West,273,5.0,14.0,83,0.00,,,0.00,Wunderground v.1.15,2014-12-18 15:00:00,
2014-12-18 10:10:00,30.2,25.9,30.23,West,273,4.0,4.0,84,0.00,,,0.00,Wunderground v.1.15,2014-12-18 15:10:00,
2014-12-18 10:15:00,30.3,26.0,30.23,West,269,3.0,6.0,84,0.00,,,0.00,Wunderground v.1.15,2014-12-18 15:15:00,
2014-12-18 10:25:00,30.3,26.0,30.23,West,267,5.0,7.0,84,0.00,,,0.00,Wunderground v.1.15,2014-12-18 15:25:00,
2014-12-18 10:30:00,30.2,25.7,30.23,West,277,5.0,5.0,83,0.00,,,0.00,Wunderground v.1.15,2014-12-18 15:30:00,
2014-12-18 10:35:00,30.2,25.7,30.23,West,265,5.0,14.0,83,0.00,,,0.00,Wunderground v.1.15,2014-12-18 15:35:00,
2014-12-18 10:40:00,30.2,25.7,30.23,West,273,5.0,5.0,83,0.00,,,0.00,Wunderground v.1.15,2014-12-18 15:40:00,
2014-12-18 10:45:00,30.2,25.7,30.23,West,273,5.0,14.0,83,0.00,,,0.00,Wunderground v.1.15,2014-12-18 15:45:00,
2014-12-18 10:50:00,30.2,25.7,30.23,WSW,242,4.0,14.0,83,0.00,,,0.00,Wunderground v.1.15,2014-12-18 15:50:00,
2014-12-18 11:00:00,30.3,26.0,30.23,West,278,5.0,5.0,84,0.00,,,0.00,Wunderground v.1.15,2014-12-18 16:00:00,
2014-12-18 11:05:00,30.3,25.8,30.23,West,267,5.0,14.0,83,0.00,,,0.00,Wunderground v.1.15,2014-12-18 16:05:00,
2014-12-18 11:10:00,30.2,25.4,30.23,West,271,5.0,14.0,82,0.00,,,0.00,Wunderground v.1.15,2014-12-18 16:10:00,
2014-12-18 11:20:00,30.4,25.6,30.22,West,280,5.0,5.0,82,0.00,,,0.00,Wunderground v.1.15,2014-12-18 16:20:00,
2014-12-18 11:25:00,30.5,25.7,30.22,West,270,5.0,6.0,82,0.00,,,0.00,Wunderground v.1.15,2014-12-18 16:25:00,
2014-12-18 11:30:00,30.6,25.8,30.22,West,273,5.0,14.0,82,0.00,,,0.00,Wunderground v.1.15,2014-12-18 16:30:00,
2014-12-18 11:35:00,30.6,25.2,30.21,West,273,5.0,14.0,80,0.00,,,0.00,Wunderground v.1.15,2014-12-18 16:35:00,
2014-12-18 11:40:00,30.7,25.3,30.21,WNW,294,5.0,14.0,80,0.00,,,0.00,Wunderground v.1.15,2014-12-18 16:40:00,
2014-12-18 11:45:00,30.7,25.0,30.21,West,276,5.0,14.0,79,0.00,,,0.00,Wunderground v.1.15,2014-12-18 16:45:00,
2014-12-18 11:50:00,30.8,25.1,30.21,West,276,5.0,14.0,79,0.00,,,0.00,Wunderground v.1.15,2014-12-18 16:50:00,
2014-12-18 11:55:00,30.8,25.4,30.21,West,271,4.0,14.0,80,0.00,,,0.00,Wunderground v.1.15,2014-12-18 16:55:00,
2014-12-18 12:00:00,30.7,25.3,30.20,WNW,282,4.0,4.0,80,0.00,,,0.00,Wunderground v.1.15,2014-12-18 17:00:00,
2014-12-18 12:05:00,30.6,25.5,30.21,West,267,5.0,5.0,81,0.00,,,0.00,Wunderground v.1.15,2014-12-18 17:05:00,
2014-12-18 12:10:00,30.5,25.7,30.20,West,267,5.0,14.0,82,0.00,,,0.00,Wunderground v.1.15,2014-12-18 17:10:00,
2014-12-18 12:15:00,30.5,25.7,30.20,WNW,284,4.0,14.0,82,0.00,,,0.00,Wunderground v.1.15,2014-12-18 17:15:00,
2014-12-18 12:20:00,30.5,25.4,30.19,West,279,4.0,4.0,81,0.00,,,0.00,Wunderground v.1.15,2014-12-18 17:20:00,
2014-12-18 12:25:00,30.6,25.5,30.20,West,278,4.0,7.0,81,0.00,,,0.00,Wunderground v.1.15,2014-12-18 17:25:00,
2014-12-18 12:35:00,30.5,25.4,30.19,West,268,5.0,14.0,81,0.00,,,0.00,Wunderground v.1.15,2014-12-18 17:35:00,
2014-12-18 12:40:00,30.4,25.3,30.19,West,275,5.0,5.0,81,0.00,,,0.00,Wunderground v.1.15,2014-12-18 17:40:00,
2014-12-18 12:45:00,30.5,25.7,30.19,WNW,286,5.0,14.0,82,0.00,,,0.00,Wunderground v.1.15,2014-12-18 17:45:00,
2014-12-18 12:50:00,30.4,25.3,30.19,West,278,4.0,14.0,81,0.00,,,0.00,Wunderground v.1.15,2014-12-18 17:50:00,
2014-12-18 12:55:00,30.4,25.3,30.19,West,273,3.0,14.0,81,0.00,,,0.00,Wunderground v.1.15,2014-12-18 17:55:00,
2014-12-18 13:00:00,30.5,25.7,30.19,West,263,4.0,14.0,82,0.00,,,0.00,Wunderground v.1.15,2014-12-18 18:00:00,
2014-12-18 13:05:00,30.5,25.7,30.19,West,260,5.0,14.0,82,0.00,,,0.00,Wunderground v.1.15,2014-12-18 18:05:00,
2014-12-18 13:10:00,30.2,25.4,30.18,West,273,6.0,6.0,82,0.00,,,0.00,Wunderground v.1.15,2014-12-18 18:10:00,
2014-12-18 13:15:00,30.3,25.5,30.18,West,277,4.0,14.0,82,0.00,,,0.00,Wunderground v.1.15,2014-12-18 18:15:00,
2014-12-18 13:20:00,30.4,25.6,30.18,WNW,293,3.0,14.0,82,0.00,,,0.00,Wunderground v.1.15,2014-12-18 18:20:00,
2014-12-18 13:25:00,30.3,25.8,30.18,WSW,256,4.0,14.0,83,0.00,,,0.00,Wunderground v.1.15,2014-12-18 18:25:00,
2014-12-18 13:30:00,30.1,25.3,30.18,West,271,6.0,6.0,82,0.00,,,0.00,Wunderground v.1.15,2014-12-18 18:30:00,
2014-12-18 13:35:00,30.1,25.6,30.18,West,271,7.0,7.0,83,0.00,,,0.00,Wunderground v.1.15,2014-12-18 18:35:00,
2014-12-18 13:45:00,30.2,25.4,30.18,SW,235,4.0,14.0,82,0.00,,,0.00,Wunderground v.1.15,2014-12-18 18:45:00,
2014-12-18 13:55:00,30.1,25.3,30.18,West,271,5.0,6.0,82,0.00,,,0.00,Wunderground v.1.15,2014-12-18 18:55:00,
2014-12-18 14:00:00,30.1,25.6,30.18,West,277,5.0,14.0,83,0.00,,,0.00,Wunderground v.1.15,2014-12-18 19:00:00,
2014-12-18 14:05:00,30.0,25.2,30.18,West,275,6.0,14.0,82,0.00,,,0.00,Wunderground v.1.15,2014-12-18 19:05:00,
2014-12-18 14:10:00,29.9,25.1,30.18,West,268,6.0,14.0,82,0.00,,,0.00,Wunderground v.1.15,2014-12-18 19:10:00,
2014-12-18 14:20:00,29.9,25.1,30.18,WSW,245,5.0,5.0,82,0.00,,,0.00,Wunderground v.1.15,2014-12-18 19:20:00,
2014-12-18 14:25:00,30.0,25.5,30.17,WSW,240,4.0,14.0,83,0.00,,,0.00,Wunderground v.1.15,2014-12-18 19:25:00,
2014-12-18 14:30:00,30.2,25.9,30.17,West,277,3.0,14.0,84,0.00,,,0.00,Wunderground v.1.15,2014-12-18 19:30:00,
2014-12-18 14:35:00,30.2,25.7,30.17,West,277,2.0,14.0,83,0.00,,,0.00,Wunderground v.1.15,2014-12-18 19:35:00,
2014-12-18 14:40:00,30.0,25.2,30.17,West,277,3.0,14.0,82,0.00,,,0.00,Wunderground v.1.15,2014-12-18 19:40:00,
2014-12-18 14:45:00,30.0,25.5,30.17,West,277,3.0,14.0,83,0.00,,,0.00,Wunderground v.1.15,2014-12-18 19:45:00,
2014-12-18 14:50:00,29.9,25.4,30.17,WSW,241,3.0,14.0,83,0.00,,,0.00,Wunderground v.1.15,2014-12-18 19:50:00,
2014-12-18 14:55:00,30.0,25.5,30.17,West,270,3.0,14.0,83,0.00,,,0.00,Wunderground v.1.15,2014-12-18 19:55:00,
2014-12-18 15:05:00,29.9,25.4,30.18,West,261,3.0,14.0,83,0.00,,,0.00,Wunderground v.1.15,2014-12-18 20:05:00,
2014-12-18 15:10:00,29.9,25.4,30.18,West,261,3.0,14.0,83,0.00,,,0.00,Wunderground v.1.15,2014-12-18 20:10:00,
2014-12-18 15:15:00,29.9,25.4,30.18,WSW,254,4.0,14.0,83,0.00,,,0.00,Wunderground v.1.15,2014-12-18 20:15:00,
2014-12-18 15:20:00,30.0,25.5,30.18,WSW,248,4.0,14.0,83,0.00,,,0.00,Wunderground v.1.15,2014-12-18 20:20:00,
2014-12-18 15:30:00,29.9,25.4,30.19,WSW,245,4.0,14.0,83,0.00,,,0.00,Wunderground v.1.15,2014-12-18 20:30:00,
2014-12-18 15:35:00,29.9,25.7,30.18,West,261,3.0,14.0,84,0.00,,,0.00,Wunderground v.1.15,2014-12-18 20:35:00,
2014-12-18 15:40:00,29.9,25.4,30.18,WSW,252,3.0,14.0,83,0.00,,,0.00,Wunderground v.1.15,2014-12-18 20:40:00,
2014-12-18 15:45:00,29.9,25.4,30.18,West,275,4.0,14.0,83,0.00,,,0.00,Wunderground v.1.15,2014-12-18 20:45:00,
2014-12-18 15:50:00,29.9,25.4,30.18,WSW,244,4.0,4.0,83,0.00,,,0.00,Wunderground v.1.15,2014-12-18 20:50:00,
2014-12-18 16:00:00,29.9,25.7,30.18,West,260,3.0,14.0,84,0.00,,,0.00,Wunderground v.1.15,2014-12-18 21:00:00,
2014-12-18 16:05:00,29.9,25.7,30.18,West,260,3.0,14.0,84,0.00,,,0.00,Wunderground v.1.15,2014-12-18 21:05:00,
2014-12-18 16:15:00,29.9,25.7,30.18,West,260,3.0,14.0,84,0.00,,,0.00,Wunderground v.1.15,2014-12-18 21:15:00,
2014-12-18 16:20:00,30.0,25.8,30.18,West,260,3.0,14.0,84,0.00,,,0.00,Wunderground v.1.15,2014-12-18 21:20:00,
2014-12-18 16:25:00,29.9,25.4,30.18,West,260,3.0,14.0,83,0.00,,,0.00,Wunderground v.1.15,2014-12-18 21:25:00,
2014-12-18 16:35:00,29.8,25.3,30.18,WSW,238,4.0,14.0,83,0.00,,,0.00,Wunderground v.1.15,2014-12-18 21:35:00,
2014-12-18 16:40:00,29.8,25.6,30.18,WSW,253,3.0,14.0,84,0.00,,,0.00,Wunderground v.1.15,2014-12-18 21:40:00,
2014-12-18 16:45:00,29.8,25.6,30.18,WSW,252,3.0,14.0,84,0.00,,,0.00,Wunderground v.1.15,2014-12-18 21:45:00,
2014-12-18 16:50:00,29.8,25.6,30.18,WSW,254,3.0,14.0,84,0.00,,,0.00,Wunderground v.1.15,2014-12-18 21:50:00,
2014-12-18 16:55:00,29.8,25.8,30.18,WSW,254,3.0,14.0,85,0.00,,,0.00,Wunderground v.1.15,2014-12-18 21:55:00,
2014-12-18 17:00:00,29.8,25.8,30.18,WSW,254,3.0,14.0,85,0.00,,,0.00,Wunderground v.1.15,2014-12-18 22:00:00,
2014-12-18 17:10:00,29.9,25.9,30.18,WSW,254,3.0,3.0,85,0.00,,,0.00,Wunderground v.1.15,2014-12-18 22:10:00,
2014-12-18 17:15:00,29.9,25.9,30.18,WSW,254,2.0,14.0,85,0.00,,,0.00,Wunderground v.1.15,2014-12-18 22:15:00,
2014-12-18 17:25:00,29.9,25.9,30.17,WSW,254,1.0,14.0,85,0.00,,,0.00,Wunderground v.1.15,2014-12-18 22:25:00,
2014-12-18 17:30:00,29.9,25.9,30.17,WSW,254,1.0,1.0,85,0.00,,,0.00,Wunderground v.1.15,2014-12-18 22:30:00,
2014-12-18 17:35:00,29.8,25.8,30.18,WSW,254,0.0,14.0,85,0.00,,,0.00,Wunderground v.1.15,2014-12-18 22:35:00,
2014-12-18 17:45:00,29.8,25.8,30.18,WSW,254,1.0,14.0,85,0.00,,,0.00,Wunderground v.1.15,2014-12-18 22:45:00,
2014-12-18 17:50:00,29.9,26.2,30.18,WSW,254,2.0,2.0,86,0.00,,,0.00,Wunderground v.1.15,2014-12-18 22:50:00,
2014-12-18 17:55:00,29.8,26.1,30.18,WSW,254,1.0,14.0,86,0.00,,,0.00,Wunderground v.1.15,2014-12-18 22:55:00,
2014-12-18 18:00:00,29.8,26.1,30.18,WSW,254,0.0,14.0,86,0.00,,,0.00,Wunderground v.1.15,2014-12-18 23:00:00,
2014-12-18 18:05:00,29.8,26.1,30.18,WSW,254,0.0,14.0,86,0.00,,,0.00,Wunderground v.1.15,2014-12-18 23:05:00,
2014-12-18 18:15:00,29.7,25.7,30.18,WSW,254,1.0,14.0,85,0.00,,,0.00,Wunderground v.1.15,2014-12-18 23:15:00,
2014-12-18 18:20:00,29.7,26.0,30.18,WSW,254,0.0,14.0,86,0.00,,,0.00,Wunderground v.1.15,2014-12-18 23:20:00,
2014-12-18 18:25:00,29.7,26.0,30.18,WSW,254,0.0,14.0,86,0.00,,,0.00,Wunderground v.1.15,2014-12-18 23:25:00,
2014-12-18 18:30:00,29.7,26.0,30.18,WSW,254,0.0,14.0,86,0.00,,,0.00,Wunderground v.1.15,2014-12-18 23:30:00,
2014-12-18 18:40:00,29.7,26.0,30.18,WSW,254,0.0,14.0,86,0.00,,,0.00,Wunderground v.1.15,2014-12-18 23:40:00,
2014-12-18 18:50:00,29.7,26.0,30.18,WSW,254,1.0,1.0,86,0.00,,,0.00,Wunderground v.1.15,2014-12-18 23:50:00,
2014-12-18 18:55:00,29.7,26.3,30.18,WSW,254,0.0,2.0,87,0.00,,,0.00,Wunderground v.1.15,2014-12-18 23:55:00,
2014-12-18 19:00:00,29.8,26.1,30.18,WSW,254,1.0,1.0,86,0.00,,,0.00,Wunderground v.1.15,2014-12-19 00:00:00,
2014-12-18 19:05:00,29.8,26.1,30.18,WSW,254,1.0,14.0,86,0.00,,,0.00,Wunderground v.1.15,2014-12-19 00:05:00,
2014-12-18 19:10:00,29.8,26.1,30.18,WSW,254,0.0,14.0,86,0.00,,,0.00,Wunderground v.1.15,2014-12-19 00:10:00,
2014-12-18 19:15:00,29.8,26.1,30.17,WSW,254,0.0,14.0,86,0.00,,,0.00,Wunderground v.1.15,2014-12-19 00:15:00,
2014-12-18 19:25:00,29.8,26.1,30.17,WSW,254,0.0,14.0,86,0.00,,,0.00,Wunderground v.1.15,2014-12-19 00:25:00,
2014-12-18 19:30:00,29.8,26.1,30.17,WSW,254,1.0,14.0,86,0.00,,,0.00,Wunderground v.1.15,2014-12-19 00:30:00,
2014-12-18 19:35:00,29.8,26.1,30.17,WSW,254,2.0,14.0,86,0.00,,,0.00,Wunderground v.1.15,2014-12-19 00:35:00,
2014-12-18 19:45:00,29.8,26.1,30.17,WSW,254,0.0,14.0,86,0.00,,,0.00,Wunderground v.1.15,2014-12-19 00:45:00,
2014-12-18 19:50:00,29.8,26.1,30.17,WSW,254,0.0,14.0,86,0.00,,,0.00,Wunderground v.1.15,2014-12-19 00:50:00,
2014-12-18 20:00:00,29.8,26.1,30.18,WSW,254,1.0,14.0,86,0.00,,,0.00,Wunderground v.1.15,2014-12-19 01:00:00,
2014-12-18 20:05:00,29.8,26.1,30.18,WSW,254,2.0,14.0,86,0.00,,,0.00,Wunderground v.1.15,2014-12-19 01:05:00,
2014-12-18 20:10:00,29.8,26.1,30.17,WSW,254,2.0,14.0,86,0.00,,,0.00,Wunderground v.1.15,2014-12-19 01:10:00,
2014-12-18 20:15:00,29.8,26.1,30.17,WSW,254,3.0,14.0,86,0.00,,,0.00,Wunderground v.1.15,2014-12-19 01:15:00,
2014-12-18 20:20:00,29.8,26.1,30.17,WSW,254,2.0,14.0,86,0.00,,,0.00,Wunderground v.1.15,2014-12-19 01:20:00,
2014-12-18 20:25:00,29.8,26.1,30.17,WSW,254,2.0,14.0,86,0.00,,,0.00,Wunderground v.1.15,2014-12-19 01:25:00,
2014-12-18 20:30:00,29.8,26.4,30.17,WSW,254,2.0,14.0,87,0.00,,,0.00,Wunderground v.1.15,2014-12-19 01:30:00,
2014-12-18 20:35:00,29.8,26.4,30.17,WSW,254,2.0,14.0,87,0.00,,,0.00,Wunderground v.1.15,2014-12-19 01:35:00,
2014-12-18 20:40:00,29.8,26.4,30.17,WSW,254,1.0,1.0,87,0.00,,,0.00,Wunderground v.1.15,2014-12-19 01:40:00,
2014-12-18 20:45:00,29.9,26.5,30.17,WSW,254,1.0,2.0,87,0.00,,,0.00,Wunderground v.1.15,2014-12-19 01:45:00,
2014-12-18 20:55:00,29.8,26.4,30.17,WSW,254,2.0,14.0,87,0.00,,,0.00,Wunderground v.1.15,2014-12-19 01:55:00,
2014-12-18 21:05:00,29.8,26.1,30.17,WSW,254,3.0,14.0,86,0.00,,,0.00,Wunderground v.1.15,2014-12-19 02:05:00,
2014-12-18 21:10:00,29.9,26.5,30.17,WSW,254,3.0,14.0,87,0.00,,,0.00,Wunderground v.1.15,2014-12-19 02:10:00,
2014-12-18 21:15:00,29.9,26.5,30.17,WSW,254,3.0,14.0,87,0.00,,,0.00,Wunderground v.1.15,2014-12-19 02:15:00,
2014-12-18 21:20:00,29.9,26.5,30.17,WSW,254,3.0,3.0,87,0.00,,,0.00,Wunderground v.1.15,2014-12-19 02:20:00,
2014-12-18 21:25:00,29.9,26.5,30.17,WSW,254,3.0,14.0,87,0.00,,,0.00,Wunderground v.1.15,2014-12-19 02:25:00,
2014-12-18 21:30:00,29.9,26.5,30.17,WSW,254,2.0,14.0,87,0.00,,,0.00,Wunderground v.1.15,2014-12-19 02:30:00,
2014-12-18 21:40:00,29.9,26.5,30.17,WSW,257,3.0,14.0,87,0.00,,,0.00,Wunderground v.1.15,2014-12-19 02:40:00,
2014-12-18 21:45:00,29.9,26.5,30.17,West,259,3.0,14.0,87,0.00,,,0.00,Wunderground v.1.15,2014-12-19 02:45:00,
2014-12-18 21:50:00,29.9,26.5,30.17,West,262,3.0,3.0,87,0.00,,,0.00,Wunderground v.1.15,2014-12-19 02:50:00,
2014-12-18 21:55:00,29.9,26.5,30.17,West,262,3.0,14.0,87,0.00,,,0.00,Wunderground v.1.15,2014-12-19 02:55:00,
2014-12-18 22:05:00,29.9,26.5,30.17,West,263,4.0,14.0,87,0.00,,,0.00,Wunderground v.1.15,2014-12-19 03:05:00,
2014-12-18 22:15:00,29.9,26.5,30.17,West,263,3.0,14.0,87,0.00,,,0.00,Wunderground v.1.15,2014-12-19 03:15:00,
2014-12-18 22:20:00,29.8,26.7,30.17,West,262,4.0,14.0,88,0.00,,,0.00,Wunderground v.1.15,2014-12-19 03:20:00,
2014-12-18 22:25:00,29.8,26.7,30.17,West,262,4.0,14.0,88,0.00,,,0.00,Wunderground v.1.15,2014-12-19 03:25:00,
2014-12-18 22:30:00,29.7,26.6,30.17,West,263,4.0,14.0,88,0.00,,,0.00,Wunderground v.1.15,2014-12-19 03:30:00,
2014-12-18 22:35:00,29.7,26.6,30.18,West,263,3.0,14.0,88,0.00,,,0.00,Wunderground v.1.15,2014-12-19 03:35:00,